TimeHST,TemperatureF,Dew PointF,Humidity,Sea Level PressureIn,VisibilityMPH,Wind Direction,Wind SpeedMPH,Gust SpeedMPH,PrecipitationIn,Events,Conditions,WindDirDegrees,DateUTC
12:54 AM,72.0,69.1,91,29.99,10.0,SE,4.6,-,N/A,,Clear,140,2013-08-21 10:54:00
1:54 AM,71.1,69.1,93,29.98,10.0,SE,6.9,-,N/A,,Clear,130,2013-08-21 11:54:00
2:54 AM,71.1,68.0,90,29.97,10.0,East,3.5,-,N/A,,Clear,80,2013-08-21 12:54:00
3:54 AM,71.1,68.0,90,29.96,10.0,SE,5.8,-,N/A,,Overcast,140,2013-08-21 13:54:00
4:54 AM,70.0,68.0,93,29.97,10.0,SE,5.8,-,N/A,,Overcast,130,2013-08-21 14:54:00
5:54 AM,68.0,66.9,96,29.97,10.0,Calm,Calm,-,N/A,,Partly Cloudy,0,2013-08-21 15:54:00
6:54 AM,71.1,68.0,90,29.99,10.0,SE,5.8,-,N/A,,Clear,130,2013-08-21 16:54:00
7:54 AM,79.0,70.0,74,30.00,10.0,Calm,Calm,-,N/A,,Clear,0,2013-08-21 17:54:00
8:54 AM,82.0,69.1,65,30.01,10.0,Calm,Calm,-,N/A,,Partly Cloudy,0,2013-08-21 18:54:00
9:54 AM,84.9,70.0,61,30.00,10.0,NNW,5.8,-,N/A,,Partly Cloudy,340,2013-08-21 19:54:00
10:54 AM,88.0,73.0,61,29.99,10.0,NNE,13.8,-,N/A,,Clear,30,2013-08-21 20:54:00
11:54 AM,88.0,72.0,59,29.97,10.0,North,10.4,-,N/A,,Partly Cloudy,360,2013-08-21 21:54:00
12:54 PM,89.1,70.0,53,29.96,10.0,NE,8.1,17.3,N/A,,Scattered Clouds,50,2013-08-21 22:54:00
1:54 PM,90.0,69.1,50,29.94,10.0,ENE,8.1,-,N/A,,Partly Cloudy,60,2013-08-21 23:54:00
2:54 PM,89.1,71.1,55,29.93,10.0,NE,12.7,20.7,N/A,,Scattered Clouds,40,2013-08-22 00:54:00
3:54 PM,88.0,72.0,59,29.92,10.0,NE,13.8,-,N/A,,Scattered Clouds,40,2013-08-22 01:54:00
4:54 PM,87.1,72.0,61,29.92,10.0,NE,11.5,-,N/A,,Scattered Clouds,50,2013-08-22 02:54:00
5:54 PM,84.0,72.0,67,29.94,10.0,NNE,11.5,-,N/A,,Partly Cloudy,30,2013-08-22 03:54:00
6:54 PM,80.1,73.0,79,29.95,10.0,NE,12.7,-,N/A,,Partly Cloudy,50,2013-08-22 04:54:00
7:30 PM,78.8,73.4,83,29.94,10.0,NE,9.2,-,N/A,,Partly Cloudy,50,2013-08-22 05:30:00
7:42 PM,78.8,73.4,83,29.94,10.0,NE,5.8,-,N/A,,Partly Cloudy,50,2013-08-22 05:42:00
7:54 PM,78.1,73.0,84,29.96,10.0,Calm,Calm,-,N/A,,Partly Cloudy,0,2013-08-22 05:54:00
8:54 PM,77.0,72.0,84,29.98,10.0,East,5.8,-,N/A,,Partly Cloudy,80,2013-08-22 06:54:00
9:54 PM,75.9,73.0,91,30.00,10.0,ESE,3.5,-,N/A,,Partly Cloudy,110,2013-08-22 07:54:00
10:54 PM,75.9,71.1,85,30.00,10.0,Calm,Calm,-,N/A,,Partly Cloudy,0,2013-08-22 08:54:00
11:54 PM,73.0,71.1,93,29.99,10.0,East,6.9,-,N/A,,Clear,100,2013-08-22 09:54:00